Year,Month,Day,Hour,Minute,Value (Times are PST for temperature in C)
2015,07,05,00,00,22.40
2015,07,05,00,01,22.40
2015,07,05,00,02,22.40
2015,07,05,00,03,22.40
2015,07,05,00,04,22.40
2015,07,05,00,05,22.50
2015,07,05,00,06,22.60
2015,07,05,00,07,22.60
2015,07,05,00,08,22.60
2015,07,05,00,09,22.60
2015,07,05,00,10,22.60
2015,07,05,00,11,22.60
2015,07,05,00,12,22.60
2015,07,05,00,13,22.60
2015,07,05,00,14,22.60
2015,07,05,00,15,22.60
2015,07,05,00,16,22.50
2015,07,05,00,17,22.50
2015,07,05,00,18,22.50
2015,07,05,00,19,22.40
2015,07,05,00,20,22.40
2015,07,05,00,21,22.40
2015,07,05,00,22,22.40
2015,07,05,00,23,22.30
2015,07,05,00,24,22.30
2015,07,05,00,25,22.30
2015,07,05,00,26,22.30
2015,07,05,00,27,22.30
2015,07,05,00,28,22.30
2015,07,05,00,29,22.30
2015,07,05,00,30,22.30
2015,07,05,00,31,22.30
2015,07,05,00,32,22.30
2015,07,05,00,33,22.30
2015,07,05,00,34,22.30
2015,07,05,00,35,22.30
2015,07,05,00,36,22.30
2015,07,05,00,37,22.30
2015,07,05,00,38,22.30
2015,07,05,00,39,22.30
2015,07,05,00,40,22.30
2015,07,05,00,41,22.20
2015,07,05,00,42,22.20
2015,07,05,00,43,22.10
2015,07,05,00,44,22.10
2015,07,05,00,45,22.00
2015,07,05,00,46,22.00
2015,07,05,00,47,21.90
2015,07,05,00,48,21.80
2015,07,05,00,49,21.80
2015,07,05,00,50,21.70
2015,07,05,00,51,21.60
2015,07,05,00,52,21.60
2015,07,05,00,53,21.50
2015,07,05,00,54,21.40
2015,07,05,00,55,21.30
2015,07,05,00,56,21.20
2015,07,05,00,57,21.10
2015,07,05,00,58,20.90
2015,07,05,00,59,20.80
2015,07,05,01,00,20.60
2015,07,05,01,01,20.50
2015,07,05,01,02,20.40
2015,07,05,01,03,20.30
2015,07,05,01,04,20.30
2015,07,05,01,05,20.20
2015,07,05,01,06,20.10
2015,07,05,01,07,20.00
2015,07,05,01,08,19.90
2015,07,05,01,09,19.90
2015,07,05,01,10,19.80
2015,07,05,01,11,19.70
2015,07,05,01,12,19.70
2015,07,05,01,13,19.60
2015,07,05,01,14,19.60
2015,07,05,01,15,19.60
2015,07,05,01,16,19.50
2015,07,05,01,17,19.50
2015,07,05,01,18,19.50
2015,07,05,01,19,19.40
2015,07,05,01,20,19.40
2015,07,05,01,21,19.40
2015,07,05,01,22,19.40
2015,07,05,01,23,19.50
2015,07,05,01,24,19.50
2015,07,05,01,25,19.50
2015,07,05,01,26,19.60
2015,07,05,01,27,19.60
2015,07,05,01,28,19.70
2015,07,05,01,29,19.70
2015,07,05,01,30,19.70
2015,07,05,01,31,19.70
2015,07,05,01,32,19.70
2015,07,05,01,33,19.70
2015,07,05,01,34,19.80
2015,07,05,01,35,19.90
2015,07,05,01,36,20.00
2015,07,05,01,37,20.10
2015,07,05,01,38,20.30
2015,07,05,01,39,20.50
2015,07,05,01,40,20.60
2015,07,05,01,41,20.80
2015,07,05,01,42,20.80
2015,07,05,01,43,20.90
2015,07,05,01,44,21.00
2015,07,05,01,45,21.10
2015,07,05,01,46,21.20
2015,07,05,01,47,21.20
2015,07,05,01,48,21.30
2015,07,05,01,49,21.30
2015,07,05,01,50,21.30
2015,07,05,01,51,21.40
2015,07,05,01,52,21.40
2015,07,05,01,53,21.40
2015,07,05,01,54,21.40
2015,07,05,01,55,21.40
2015,07,05,01,56,21.40
2015,07,05,01,57,21.40
2015,07,05,01,58,21.40
2015,07,05,01,59,21.40
2015,07,05,02,00,21.40
2015,07,05,02,01,21.30
2015,07,05,02,02,21.30
2015,07,05,02,03,21.30
2015,07,05,02,04,21.30
2015,07,05,02,05,21.30
2015,07,05,02,06,21.30
2015,07,05,02,07,21.20
2015,07,05,02,08,21.20
2015,07,05,02,09,21.20
2015,07,05,02,10,21.20
2015,07,05,02,11,21.20
2015,07,05,02,12,21.10
2015,07,05,02,13,21.10
2015,07,05,02,14,21.10
2015,07,05,02,15,21.10
2015,07,05,02,16,21.00
2015,07,05,02,17,21.00
2015,07,05,02,18,21.00
2015,07,05,02,19,21.00
2015,07,05,02,20,21.00
2015,07,05,02,21,20.90
2015,07,05,02,22,20.90
2015,07,05,02,23,20.90
2015,07,05,02,24,20.90
2015,07,05,02,25,20.80
2015,07,05,02,26,20.80
2015,07,05,02,27,20.80
2015,07,05,02,28,20.80
2015,07,05,02,29,20.80
2015,07,05,02,30,20.80
2015,07,05,02,31,20.80
2015,07,05,02,32,20.70
2015,07,05,02,33,20.70
2015,07,05,02,34,20.70
2015,07,05,02,35,20.80
2015,07,05,02,36,20.70
2015,07,05,02,37,20.70
2015,07,05,02,38,20.80
2015,07,05,02,39,20.80
2015,07,05,02,40,20.80
2015,07,05,02,41,20.80
2015,07,05,02,42,20.80
2015,07,05,02,43,20.80
2015,07,05,02,44,20.70
2015,07,05,02,45,20.70
2015,07,05,02,46,20.70
2015,07,05,02,47,20.70
2015,07,05,02,48,20.80
2015,07,05,02,49,20.80
2015,07,05,02,50,20.70
2015,07,05,02,51,20.70
2015,07,05,02,52,20.70
2015,07,05,02,53,20.70
2015,07,05,02,54,20.70
2015,07,05,02,55,20.70
2015,07,05,02,56,20.60
2015,07,05,02,57,20.60
2015,07,05,02,58,20.50
2015,07,05,02,59,20.50
2015,07,05,03,00,20.40
2015,07,05,03,01,20.30
2015,07,05,03,02,20.20
2015,07,05,03,03,20.20
2015,07,05,03,04,20.10
2015,07,05,03,05,20.10
2015,07,05,03,06,20.00
2015,07,05,03,07,19.90
2015,07,05,03,08,19.90
2015,07,05,03,09,19.90
2015,07,05,03,10,19.80
2015,07,05,03,11,19.80
2015,07,05,03,12,19.70
2015,07,05,03,13,19.70
2015,07,05,03,14,19.60
2015,07,05,03,15,19.60
2015,07,05,03,16,19.60
2015,07,05,03,17,19.50
2015,07,05,03,18,19.50
2015,07,05,03,19,19.40
2015,07,05,03,20,19.40
2015,07,05,03,21,19.40
2015,07,05,03,22,19.40
2015,07,05,03,23,19.30
2015,07,05,03,24,19.30
2015,07,05,03,25,19.30
2015,07,05,03,26,19.20
2015,07,05,03,27,19.10
2015,07,05,03,28,19.10
2015,07,05,03,29,19.00
2015,07,05,03,30,19.00
2015,07,05,03,31,18.90
2015,07,05,03,32,18.90
2015,07,05,03,33,18.90
2015,07,05,03,34,18.80
2015,07,05,03,35,18.80
2015,07,05,03,36,18.70
2015,07,05,03,37,18.60
2015,07,05,03,38,18.50
2015,07,05,03,39,18.50
2015,07,05,03,40,18.40
2015,07,05,03,41,18.30
2015,07,05,03,42,18.20
2015,07,05,03,43,18.10
2015,07,05,03,44,18.00
2015,07,05,03,45,18.00
2015,07,05,03,46,17.90
2015,07,05,03,47,17.90
2015,07,05,03,48,17.80
2015,07,05,03,49,17.80
2015,07,05,03,50,17.70
2015,07,05,03,51,17.70
2015,07,05,03,52,17.70
2015,07,05,03,53,17.70
2015,07,05,03,54,17.60
2015,07,05,03,55,17.60
2015,07,05,03,56,17.50
2015,07,05,03,57,17.50
2015,07,05,03,58,17.40
2015,07,05,03,59,17.40
2015,07,05,04,00,17.40
2015,07,05,04,01,17.30
2015,07,05,04,02,17.30
2015,07,05,04,03,17.30
2015,07,05,04,04,17.30
2015,07,05,04,05,17.20
2015,07,05,04,06,17.20
2015,07,05,04,07,17.20
2015,07,05,04,08,17.10
2015,07,05,04,09,17.10
2015,07,05,04,10,17.10
2015,07,05,04,11,17.00
2015,07,05,04,12,17.00
2015,07,05,04,13,17.00
2015,07,05,04,14,17.00
2015,07,05,04,15,17.00
2015,07,05,04,16,17.00
2015,07,05,04,17,17.00
2015,07,05,04,18,17.00
2015,07,05,04,19,16.90
2015,07,05,04,20,16.90
2015,07,05,04,21,16.90
2015,07,05,04,22,16.90
2015,07,05,04,23,16.90
2015,07,05,04,24,16.80
2015,07,05,04,25,16.80
2015,07,05,04,26,16.80
2015,07,05,04,27,16.80
2015,07,05,04,28,16.80
2015,07,05,04,29,16.80
2015,07,05,04,30,16.70
2015,07,05,04,31,16.70
2015,07,05,04,32,16.70
2015,07,05,04,33,16.70
2015,07,05,04,34,16.70
2015,07,05,04,35,16.60
2015,07,05,04,36,16.60
2015,07,05,04,37,16.60
2015,07,05,04,38,16.60
2015,07,05,04,39,16.50
2015,07,05,04,40,16.60
2015,07,05,04,41,16.60
2015,07,05,04,42,16.60
2015,07,05,04,43,16.60
2015,07,05,04,44,16.60
2015,07,05,04,45,16.60
2015,07,05,04,46,16.60
2015,07,05,04,47,16.60
2015,07,05,04,48,16.60
2015,07,05,04,49,16.60
2015,07,05,04,50,16.60
2015,07,05,04,51,16.50
2015,07,05,04,52,16.50
2015,07,05,04,53,16.50
2015,07,05,04,54,16.50
2015,07,05,04,55,16.50
2015,07,05,04,56,16.40
2015,07,05,04,57,16.40
2015,07,05,04,58,16.40
2015,07,05,04,59,16.40
2015,07,05,05,00,16.40
2015,07,05,05,01,16.40
2015,07,05,05,02,16.40
2015,07,05,05,03,16.40
2015,07,05,05,04,16.30
2015,07,05,05,05,16.30
2015,07,05,05,06,16.30
2015,07,05,05,07,16.30
2015,07,05,05,08,16.40
2015,07,05,05,09,16.40
2015,07,05,05,10,16.40
2015,07,05,05,11,16.50
2015,07,05,05,12,16.50
2015,07,05,05,13,16.60
2015,07,05,05,14,16.60
2015,07,05,05,15,16.70
2015,07,05,05,16,16.70
2015,07,05,05,17,16.70
2015,07,05,05,18,16.70
2015,07,05,05,19,16.70
2015,07,05,05,20,16.70
2015,07,05,05,21,16.70
2015,07,05,05,22,16.80
2015,07,05,05,23,16.80
2015,07,05,05,24,16.80
2015,07,05,05,25,16.80
2015,07,05,05,26,16.80
2015,07,05,05,27,16.80
2015,07,05,05,28,16.90
2015,07,05,05,29,16.90
2015,07,05,05,30,16.90
2015,07,05,05,31,16.90
2015,07,05,05,32,16.90
2015,07,05,05,33,16.90
2015,07,05,05,34,16.90
2015,07,05,05,35,16.90
2015,07,05,05,36,16.90
2015,07,05,05,37,16.80
2015,07,05,05,38,16.80
2015,07,05,05,39,16.80
2015,07,05,05,40,16.80
2015,07,05,05,41,16.80
2015,07,05,05,42,16.80
2015,07,05,05,43,16.80
2015,07,05,05,44,16.80
2015,07,05,05,45,16.80
2015,07,05,05,46,16.80
2015,07,05,05,47,16.80
2015,07,05,05,48,16.90
2015,07,05,05,49,16.90
2015,07,05,05,50,17.00
2015,07,05,05,51,17.00
2015,07,05,05,52,17.10
2015,07,05,05,53,17.10
2015,07,05,05,54,17.10
2015,07,05,05,55,17.10
2015,07,05,05,56,17.10
2015,07,05,05,57,17.10
2015,07,05,05,58,17.10
2015,07,05,05,59,17.10
2015,07,05,06,00,17.10
2015,07,05,06,01,17.10
2015,07,05,06,02,17.10
2015,07,05,06,03,17.20
2015,07,05,06,04,17.20
2015,07,05,06,05,17.20
2015,07,05,06,06,17.20
2015,07,05,06,07,17.20
2015,07,05,06,08,17.20
2015,07,05,06,09,17.30
2015,07,05,06,10,17.30
2015,07,05,06,11,17.30
2015,07,05,06,12,17.30
2015,07,05,06,13,17.20
2015,07,05,06,14,17.20
2015,07,05,06,15,17.20
2015,07,05,06,16,17.20
2015,07,05,06,17,17.10
2015,07,05,06,18,17.10
2015,07,05,06,19,17.10
2015,07,05,06,20,17.10
2015,07,05,06,21,17.10
2015,07,05,06,22,17.00
2015,07,05,06,23,17.00
2015,07,05,06,24,17.00
2015,07,05,06,25,16.90
2015,07,05,06,26,16.90
2015,07,05,06,27,16.90
2015,07,05,06,28,16.90
2015,07,05,06,29,16.90
2015,07,05,06,30,16.90
2015,07,05,06,31,16.90
2015,07,05,06,32,17.00
2015,07,05,06,33,17.00
2015,07,05,06,34,17.00
2015,07,05,06,35,17.00
2015,07,05,06,36,17.00
2015,07,05,06,37,17.00
2015,07,05,06,38,17.00
2015,07,05,06,39,17.00
2015,07,05,06,40,17.10
2015,07,05,06,41,17.10
2015,07,05,06,42,17.10
2015,07,05,06,43,17.20
2015,07,05,06,44,17.20
2015,07,05,06,45,17.30
2015,07,05,06,46,17.30
2015,07,05,06,47,17.30
2015,07,05,06,48,17.40
2015,07,05,06,49,17.40
2015,07,05,06,50,17.40
2015,07,05,06,51,17.50
2015,07,05,06,52,17.60
2015,07,05,06,53,17.60
2015,07,05,06,54,17.60
2015,07,05,06,55,17.70
2015,07,05,06,56,17.70
2015,07,05,06,57,17.70
2015,07,05,06,58,17.70
2015,07,05,06,59,17.70
2015,07,05,07,00,17.80
2015,07,05,07,01,17.80
2015,07,05,07,02,17.80
2015,07,05,07,03,17.80
2015,07,05,07,04,17.90
2015,07,05,07,05,17.90
2015,07,05,07,06,17.90
2015,07,05,07,07,17.90
2015,07,05,07,08,17.90
2015,07,05,07,09,17.90
2015,07,05,07,10,17.90
2015,07,05,07,11,18.00
2015,07,05,07,12,18.00
2015,07,05,07,13,18.00
2015,07,05,07,14,18.00
2015,07,05,07,15,18.00
2015,07,05,07,16,18.00
2015,07,05,07,17,18.10
2015,07,05,07,18,18.10
2015,07,05,07,19,18.10
2015,07,05,07,20,18.10
2015,07,05,07,21,18.10
2015,07,05,07,22,18.10
2015,07,05,07,23,18.10
2015,07,05,07,24,18.10
2015,07,05,07,25,18.10
2015,07,05,07,26,18.10
2015,07,05,07,27,18.10
2015,07,05,07,28,18.10
2015,07,05,07,29,18.10
2015,07,05,07,30,18.10
2015,07,05,07,31,18.10
2015,07,05,07,32,18.10
2015,07,05,07,33,18.20
2015,07,05,07,34,18.20
2015,07,05,07,35,18.20
2015,07,05,07,36,18.20
2015,07,05,07,37,18.20
2015,07,05,07,38,18.20
2015,07,05,07,39,18.20
2015,07,05,07,40,18.20
2015,07,05,07,41,18.20
2015,07,05,07,42,18.20
2015,07,05,07,43,18.20
2015,07,05,07,44,18.20
2015,07,05,07,45,18.30
2015,07,05,07,46,18.30
2015,07,05,07,47,18.30
2015,07,05,07,48,18.30
2015,07,05,07,49,18.30
2015,07,05,07,50,18.30
2015,07,05,07,51,18.40
2015,07,05,07,52,18.40
2015,07,05,07,53,18.40
2015,07,05,07,54,18.40
2015,07,05,07,55,18.40
2015,07,05,07,56,18.50
2015,07,05,07,57,18.50
2015,07,05,07,58,18.60
2015,07,05,07,59,18.60
2015,07,05,08,00,18.60
2015,07,05,08,01,18.60
2015,07,05,08,02,18.60
2015,07,05,08,03,18.70
2015,07,05,08,04,18.70
2015,07,05,08,05,18.70
2015,07,05,08,06,18.70
2015,07,05,08,07,18.80
2015,07,05,08,08,18.80
2015,07,05,08,09,18.80
2015,07,05,08,10,18.80
2015,07,05,08,11,18.80
2015,07,05,08,12,18.90
2015,07,05,08,13,18.90
2015,07,05,08,14,18.90
2015,07,05,08,15,19.00
2015,07,05,08,16,19.00
2015,07,05,08,17,19.10
2015,07,05,08,18,19.10
2015,07,05,08,19,19.10
2015,07,05,08,20,19.20
2015,07,05,08,21,19.20
2015,07,05,08,22,19.20
2015,07,05,08,23,19.20
2015,07,05,08,24,19.30
2015,07,05,08,25,19.30
2015,07,05,08,26,19.30
2015,07,05,08,27,19.40
2015,07,05,08,28,19.40
2015,07,05,08,29,19.40
2015,07,05,08,30,19.40
2015,07,05,08,31,19.50
2015,07,05,08,32,19.50
2015,07,05,08,33,19.60
2015,07,05,08,34,19.60
2015,07,05,08,35,19.60
2015,07,05,08,36,19.70
2015,07,05,08,37,19.70
2015,07,05,08,38,19.70
2015,07,05,08,39,19.80
2015,07,05,08,40,19.80
2015,07,05,08,41,19.90
2015,07,05,08,42,19.90
2015,07,05,08,43,20.00
2015,07,05,08,44,20.00
2015,07,05,08,45,20.10
2015,07,05,08,46,20.10
2015,07,05,08,47,20.20
2015,07,05,08,48,20.20
2015,07,05,08,49,20.30
2015,07,05,08,50,20.30
2015,07,05,08,51,20.30
2015,07,05,08,52,20.40
2015,07,05,08,53,20.50
2015,07,05,08,54,20.50
2015,07,05,08,55,20.60
2015,07,05,08,56,20.60
2015,07,05,08,57,20.70
2015,07,05,08,58,20.70
2015,07,05,08,59,20.70
2015,07,05,09,00,20.70
2015,07,05,09,01,20.70
2015,07,05,09,02,20.70
2015,07,05,09,03,20.70
2015,07,05,09,04,20.70
2015,07,05,09,05,20.70
2015,07,05,09,06,20.70
2015,07,05,09,07,20.70
2015,07,05,09,08,20.70
2015,07,05,09,09,20.70
2015,07,05,09,10,20.70
2015,07,05,09,11,20.70
2015,07,05,09,12,20.70
2015,07,05,09,13,20.70
2015,07,05,09,14,20.70
2015,07,05,09,15,20.70
2015,07,05,09,16,20.70
2015,07,05,09,17,20.70
2015,07,05,09,18,20.70
2015,07,05,09,19,20.70
2015,07,05,09,20,20.60
2015,07,05,09,21,20.60
2015,07,05,09,22,20.60
2015,07,05,09,23,20.60
2015,07,05,09,24,20.60
2015,07,05,09,25,20.60
2015,07,05,09,26,20.60
2015,07,05,09,27,20.70
2015,07,05,09,28,20.70
2015,07,05,09,29,20.70
2015,07,05,09,30,20.70
2015,07,05,09,31,20.70
2015,07,05,09,32,20.80
2015,07,05,09,33,20.80
2015,07,05,09,34,20.80
2015,07,05,09,35,20.80
2015,07,05,09,36,20.80
2015,07,05,09,37,20.90
2015,07,05,09,38,20.90
2015,07,05,09,39,20.90
2015,07,05,09,40,20.90
2015,07,05,09,41,20.90
2015,07,05,09,42,21.00
2015,07,05,09,43,21.00
2015,07,05,09,44,21.00
2015,07,05,09,45,21.00
2015,07,05,09,46,21.00
2015,07,05,09,47,21.10
2015,07,05,09,48,21.10
2015,07,05,09,49,21.10
2015,07,05,09,50,21.10
2015,07,05,09,51,21.10
2015,07,05,09,52,21.20
2015,07,05,09,53,21.20
2015,07,05,09,54,21.20
2015,07,05,09,55,21.20
2015,07,05,09,56,21.20
2015,07,05,09,57,21.20
2015,07,05,09,58,21.20
2015,07,05,09,59,21.20
2015,07,05,10,00,21.20
2015,07,05,10,01,21.20
2015,07,05,10,02,21.20
2015,07,05,10,03,21.20
2015,07,05,10,04,21.20
2015,07,05,10,05,21.20
2015,07,05,10,06,21.20
2015,07,05,10,07,21.20
2015,07,05,10,08,21.30
2015,07,05,10,09,21.30
2015,07,05,10,10,21.30
2015,07,05,10,11,21.30
2015,07,05,10,12,21.30
2015,07,05,10,13,21.30
2015,07,05,10,14,21.30
2015,07,05,10,15,21.30
2015,07,05,10,16,21.30
2015,07,05,10,17,21.30
2015,07,05,10,18,21.40
2015,07,05,10,19,21.40
2015,07,05,10,20,21.40
2015,07,05,10,21,21.40
2015,07,05,10,22,21.40
2015,07,05,10,23,21.40
2015,07,05,10,24,21.40
2015,07,05,10,25,21.40
2015,07,05,10,26,21.40
2015,07,05,10,27,21.50
2015,07,05,10,28,21.50
2015,07,05,10,29,21.60
2015,07,05,10,30,21.60
2015,07,05,10,31,21.60
2015,07,05,10,32,21.70
2015,07,05,10,33,21.70
2015,07,05,10,34,21.80
2015,07,05,10,35,21.80
2015,07,05,10,36,21.80
2015,07,05,10,37,21.90
2015,07,05,10,38,21.90
2015,07,05,10,39,21.90
2015,07,05,10,40,21.90
2015,07,05,10,41,22.00
2015,07,05,10,42,22.00
2015,07,05,10,43,22.10
2015,07,05,10,44,22.10
2015,07,05,10,45,22.10
2015,07,05,10,46,22.10
2015,07,05,10,47,22.10
2015,07,05,10,48,22.10
2015,07,05,10,49,22.10
2015,07,05,10,50,22.10
2015,07,05,10,51,22.10
2015,07,05,10,52,22.10
2015,07,05,10,53,22.10
2015,07,05,10,54,22.10
2015,07,05,10,55,22.20
2015,07,05,10,56,22.20
2015,07,05,10,57,22.20
2015,07,05,10,58,22.20
2015,07,05,10,59,22.30
2015,07,05,11,00,22.30
2015,07,05,11,01,22.40
2015,07,05,11,02,22.40
2015,07,05,11,03,22.40
2015,07,05,11,04,22.50
2015,07,05,11,05,22.50
2015,07,05,11,06,22.50
2015,07,05,11,07,22.60
2015,07,05,11,08,22.60
2015,07,05,11,09,22.50
2015,07,05,11,10,22.50
2015,07,05,11,11,22.50
2015,07,05,11,12,22.50
2015,07,05,11,13,22.50
2015,07,05,11,14,22.50
2015,07,05,11,15,22.50
2015,07,05,11,16,22.50
2015,07,05,11,17,22.50
2015,07,05,11,18,22.50
2015,07,05,11,19,22.50
2015,07,05,11,20,22.50
2015,07,05,11,21,22.40
2015,07,05,11,22,22.40
2015,07,05,11,23,22.40
2015,07,05,11,24,22.40
2015,07,05,11,25,22.40
2015,07,05,11,26,22.40
2015,07,05,11,27,22.40
2015,07,05,11,28,22.40
2015,07,05,11,29,22.40
2015,07,05,11,30,22.40
2015,07,05,11,31,22.40
2015,07,05,11,32,22.40
2015,07,05,11,33,22.40
2015,07,05,11,34,22.50
2015,07,05,11,35,22.50
2015,07,05,11,36,22.60
2015,07,05,11,37,22.60
2015,07,05,11,38,22.70
2015,07,05,11,39,22.80
2015,07,05,11,40,22.80
2015,07,05,11,41,22.80
2015,07,05,11,42,22.90
2015,07,05,11,43,23.00
2015,07,05,11,44,23.00
2015,07,05,11,45,23.10
2015,07,05,11,46,23.10
2015,07,05,11,47,23.10
2015,07,05,11,48,23.20
2015,07,05,11,49,23.20
2015,07,05,11,50,23.20
2015,07,05,11,51,23.30
2015,07,05,11,52,23.30
2015,07,05,11,53,23.30
2015,07,05,11,54,23.30
2015,07,05,11,55,23.30
2015,07,05,11,56,23.30
2015,07,05,11,57,23.30
2015,07,05,11,58,23.30
2015,07,05,11,59,23.40
2015,07,05,12,00,23.40
2015,07,05,12,01,23.40
2015,07,05,12,02,23.50
2015,07,05,12,03,23.50
2015,07,05,12,04,23.60
2015,07,05,12,05,23.70
2015,07,05,12,06,23.80
2015,07,05,12,07,23.80
2015,07,05,12,08,23.90
2015,07,05,12,09,23.90
2015,07,05,12,10,24.00
2015,07,05,12,11,24.00
2015,07,05,12,12,24.10
2015,07,05,12,13,24.10
2015,07,05,12,14,24.20
2015,07,05,12,15,24.20
2015,07,05,12,16,24.30
2015,07,05,12,17,24.30
2015,07,05,12,18,24.40
2015,07,05,12,19,24.40
2015,07,05,12,20,24.50
2015,07,05,12,21,24.60
2015,07,05,12,22,24.60
2015,07,05,12,23,24.70
2015,07,05,12,24,24.70
2015,07,05,12,25,24.80
2015,07,05,12,26,24.80
2015,07,05,12,27,24.80
2015,07,05,12,28,24.80
2015,07,05,12,29,24.80
2015,07,05,12,30,24.80
2015,07,05,12,31,24.80
2015,07,05,12,32,24.90
2015,07,05,12,33,24.90
2015,07,05,12,34,24.90
2015,07,05,12,35,24.90
2015,07,05,12,36,25.00
2015,07,05,12,37,25.00
2015,07,05,12,38,25.10
2015,07,05,12,39,25.10
2015,07,05,12,40,25.10
2015,07,05,12,41,25.20
2015,07,05,12,42,25.20
2015,07,05,12,43,25.20
2015,07,05,12,44,25.20
2015,07,05,12,45,25.20
2015,07,05,12,46,25.20
2015,07,05,12,47,25.20
2015,07,05,12,48,25.20
2015,07,05,12,49,25.20
2015,07,05,12,50,25.20
2015,07,05,12,51,25.20
2015,07,05,12,52,25.20
2015,07,05,12,53,25.20
2015,07,05,12,54,25.20
2015,07,05,12,55,25.20
2015,07,05,12,56,25.20
2015,07,05,12,57,25.20
2015,07,05,12,58,25.20
2015,07,05,12,59,25.20
2015,07,05,13,00,25.20
2015,07,05,13,01,25.30
2015,07,05,13,02,25.30
2015,07,05,13,03,25.30
2015,07,05,13,04,25.30
2015,07,05,13,05,25.40
2015,07,05,13,06,25.40
2015,07,05,13,07,25.50
2015,07,05,13,08,25.50
2015,07,05,13,09,25.60
2015,07,05,13,10,25.60
2015,07,05,13,11,25.60
2015,07,05,13,12,25.70
2015,07,05,13,13,25.70
2015,07,05,13,14,25.70
2015,07,05,13,15,25.80
2015,07,05,13,16,25.80
2015,07,05,13,17,25.90
2015,07,05,13,18,25.90
2015,07,05,13,19,26.00
2015,07,05,13,20,26.00
2015,07,05,13,21,26.10
2015,07,05,13,22,26.10
2015,07,05,13,23,26.10
2015,07,05,13,24,26.10
2015,07,05,13,25,26.10
2015,07,05,13,26,26.10
2015,07,05,13,27,26.10
2015,07,05,13,28,26.10
2015,07,05,13,29,26.10
2015,07,05,13,30,26.20
2015,07,05,13,31,26.20
2015,07,05,13,32,26.20
2015,07,05,13,33,26.20
2015,07,05,13,34,26.20
2015,07,05,13,35,26.30
2015,07,05,13,36,26.30
2015,07,05,13,37,26.30
2015,07,05,13,38,26.30
2015,07,05,13,39,26.30
2015,07,05,13,40,26.30
2015,07,05,13,41,26.30
2015,07,05,13,42,26.30
2015,07,05,13,43,26.40
2015,07,05,13,44,26.40
2015,07,05,13,45,26.40
2015,07,05,13,46,26.50
2015,07,05,13,47,26.50
2015,07,05,13,48,26.50
2015,07,05,13,49,26.50
2015,07,05,13,50,26.40
2015,07,05,13,51,26.40
2015,07,05,13,52,26.50
2015,07,05,13,53,26.50
2015,07,05,13,54,26.50
2015,07,05,13,55,26.50
2015,07,05,13,56,26.50
2015,07,05,13,57,26.60
2015,07,05,13,58,26.60
2015,07,05,13,59,26.60
2015,07,05,14,00,26.60
2015,07,05,14,01,26.60
2015,07,05,14,02,26.50
2015,07,05,14,03,26.50
2015,07,05,14,04,26.50
2015,07,05,14,05,26.40
2015,07,05,14,06,26.40
2015,07,05,14,07,26.40
2015,07,05,14,08,26.40
2015,07,05,14,09,26.40
2015,07,05,14,10,26.30
2015,07,05,14,11,26.30
2015,07,05,14,12,26.30
2015,07,05,14,13,26.30
2015,07,05,14,14,26.30
2015,07,05,14,15,26.30
2015,07,05,14,16,26.30
2015,07,05,14,17,26.40
2015,07,05,14,18,26.40
2015,07,05,14,19,26.40
2015,07,05,14,20,26.40
2015,07,05,14,21,26.40
2015,07,05,14,22,26.40
2015,07,05,14,23,26.50
2015,07,05,14,24,26.50
2015,07,05,14,25,26.60
2015,07,05,14,26,26.60
2015,07,05,14,27,26.60
2015,07,05,14,28,26.60
2015,07,05,14,29,26.70
2015,07,05,14,30,26.70
2015,07,05,14,31,26.80
2015,07,05,14,32,26.80
2015,07,05,14,33,26.80
2015,07,05,14,34,26.90
2015,07,05,14,35,26.90
2015,07,05,14,36,26.90
2015,07,05,14,37,27.00
2015,07,05,14,38,27.00
2015,07,05,14,39,27.10
2015,07,05,14,40,27.10
2015,07,05,14,41,27.10
2015,07,05,14,42,27.10
2015,07,05,14,43,27.10
2015,07,05,14,44,27.20
2015,07,05,14,45,27.20
2015,07,05,14,46,27.20
2015,07,05,14,47,27.20
2015,07,05,14,48,27.30
2015,07,05,14,49,27.30
2015,07,05,14,50,27.30
2015,07,05,14,51,27.30
2015,07,05,14,52,27.30
2015,07,05,14,53,27.30
2015,07,05,14,54,27.40
2015,07,05,14,55,27.40
2015,07,05,14,56,27.50
2015,07,05,14,57,27.50
2015,07,05,14,58,27.60
2015,07,05,14,59,27.60
2015,07,05,15,00,27.60
2015,07,05,15,01,27.70
2015,07,05,15,02,27.70
2015,07,05,15,03,27.70
2015,07,05,15,04,27.80
2015,07,05,15,05,27.80
2015,07,05,15,06,27.80
2015,07,05,15,07,27.80
2015,07,05,15,08,27.80
2015,07,05,15,09,27.90
2015,07,05,15,10,27.90
2015,07,05,15,11,27.90
2015,07,05,15,12,27.90
2015,07,05,15,13,28.00
2015,07,05,15,14,28.10
2015,07,05,15,15,28.10
2015,07,05,15,16,28.20
2015,07,05,15,17,28.10
2015,07,05,15,18,27.90
2015,07,05,15,19,27.80
2015,07,05,15,20,27.70
2015,07,05,15,21,27.60
2015,07,05,15,22,27.50
2015,07,05,15,23,27.50
2015,07,05,15,24,27.40
2015,07,05,15,25,27.40
2015,07,05,15,26,27.30
2015,07,05,15,27,27.30
2015,07,05,15,28,27.30
2015,07,05,15,29,27.20
2015,07,05,15,30,27.20
2015,07,05,15,31,27.10
2015,07,05,15,32,27.00
2015,07,05,15,33,27.00
2015,07,05,15,34,26.90
2015,07,05,15,35,26.90
2015,07,05,15,36,26.90
2015,07,05,15,37,26.90
2015,07,05,15,38,26.80
2015,07,05,15,39,26.80
2015,07,05,15,40,26.70
2015,07,05,15,41,26.60
2015,07,05,15,42,26.50
2015,07,05,15,43,26.50
2015,07,05,15,44,26.40
2015,07,05,15,45,26.40
2015,07,05,15,46,26.40
2015,07,05,15,47,26.40
2015,07,05,15,48,26.40
2015,07,05,15,49,26.40
2015,07,05,15,50,26.40
2015,07,05,15,51,26.40
2015,07,05,15,52,26.40
2015,07,05,15,53,26.40
2015,07,05,15,54,26.40
2015,07,05,15,55,26.40
2015,07,05,15,56,26.40
2015,07,05,15,57,26.50
2015,07,05,15,58,26.50
2015,07,05,15,59,26.50
2015,07,05,16,00,26.60
2015,07,05,16,01,26.60
2015,07,05,16,02,26.60
2015,07,05,16,03,26.60
2015,07,05,16,04,26.60
2015,07,05,16,05,26.60
2015,07,05,16,06,26.60
2015,07,05,16,07,26.70
2015,07,05,16,08,26.70
2015,07,05,16,09,26.70
2015,07,05,16,10,26.70
2015,07,05,16,11,26.80
2015,07,05,16,12,26.80
2015,07,05,16,13,26.80
2015,07,05,16,14,26.80
2015,07,05,16,15,26.80
2015,07,05,16,16,26.70
2015,07,05,16,17,26.70
2015,07,05,16,18,26.60
2015,07,05,16,19,26.60
2015,07,05,16,20,26.60
2015,07,05,16,21,26.60
2015,07,05,16,22,26.60
2015,07,05,16,23,26.60
2015,07,05,16,24,26.60
2015,07,05,16,25,26.60
2015,07,05,16,26,26.70
2015,07,05,16,27,26.70
2015,07,05,16,28,26.70
2015,07,05,16,29,26.70
2015,07,05,16,30,26.70
2015,07,05,16,31,26.70
2015,07,05,16,32,26.80
2015,07,05,16,33,26.80
2015,07,05,16,34,26.80
2015,07,05,16,35,26.90
2015,07,05,16,36,26.90
2015,07,05,16,37,27.00
2015,07,05,16,38,27.00
2015,07,05,16,39,27.10
2015,07,05,16,40,27.10
2015,07,05,16,41,27.10
2015,07,05,16,42,27.00
2015,07,05,16,43,27.00
2015,07,05,16,44,26.90
2015,07,05,16,45,26.90
2015,07,05,16,46,26.80
2015,07,05,16,47,26.80
2015,07,05,16,48,26.80
2015,07,05,16,49,26.80
2015,07,05,16,50,26.80
2015,07,05,16,51,26.80
2015,07,05,16,52,26.80
2015,07,05,16,53,26.80
2015,07,05,16,54,26.80
2015,07,05,16,55,26.80
2015,07,05,16,56,26.80
2015,07,05,16,57,26.80
2015,07,05,16,58,26.80
2015,07,05,16,59,26.80
2015,07,05,17,00,26.80
2015,07,05,17,01,26.70
2015,07,05,17,02,26.70
2015,07,05,17,03,26.70
2015,07,05,17,04,26.70
2015,07,05,17,05,26.70
2015,07,05,17,06,26.80
2015,07,05,17,07,26.80
2015,07,05,17,08,26.80
2015,07,05,17,09,26.80
2015,07,05,17,10,26.80
2015,07,05,17,11,26.80
2015,07,05,17,12,26.80
2015,07,05,17,13,26.80
2015,07,05,17,14,26.80
2015,07,05,17,15,26.80
2015,07,05,17,16,26.80
2015,07,05,17,17,26.80
2015,07,05,17,18,26.90
2015,07,05,17,19,26.90